sat.trackr.live / text

‹ back to catalog

STARLINK-37323

NORAD 69516 · 2026-133J

PAYLOAD ACTIVE UNKNOWN

§ Identity

Operator
Country
US
Launch date
2026-06-12
Launch site
AFETR
Launch vehicle
Mass (kg)
RCS (m²)

Purposes: comms

External: N2YO · Heavens-Above · Gunter

§ Orbital elements

Epoch: 2026-09-20T04:17:46.741344Z

Period
93.85 min
Inclination
53.1563°
Eccentricity
0.0001846
Mean motion
15.34401666 rev/d
Perigee alt
461.4 km
Apogee alt
464.0 km
Semi-major
6,840.8 km
B*
4.6096e-4
RAAN
231.2855°
Arg perigee
96.2346°
Mean anomaly
263.8867°
Rev number
1,670

§ Raw data

STARLINK-373231 69516U 26133J   26263.17901321  .00015231  00000+0  46096-3 0  99942 69516  53.1563 231.2855 0001846  96.2346 263.8867 15.34401666 16707

JSON: /api/v1/satellites/69516 · /tle

For live sub-satellite position, see the globe view (requires WebGL).

§ Visibility from observer

Set your observer location to see the next 7 days of passes ≥ 10°. The values pass through the URL so the page stays shareable.

No JS? Fill the form by hand. The geolocation button needs JavaScript.